This demonstration page uses our WeatherBlox Daily Observations layout. Learn more.

41.86663, -103.66717

Hourly Observations for December 1, 2019

Temp ( °F °C ) Dew Point ( °F °C ) Humidity (%) Winds ( mph kmh ) Pressure ( in mb ) Visibility ( mi km ) Precip ( " mm )
12:53 am 00:53 undefined N/A N/A N/A undefined N/A N/A N/A 0 0
1:53 am 01:53 undefined N/A N/A N/A undefined N/A N/A N/A 0 0
2:53 am 02:53 Clear 23 -5 15 -9.4 72 72 WNW 17 28 30.15 1021 10 16.0934 0 0
3:53 am 03:53 Clear 21 -6.1 13 -10.6 71 71 WNW 16 26 30.18 1022 10 16.0934 0 0
4:53 am 04:53 Clear 18 -7.8 12 -11.1 77 77 WNW 12 19 30.21 1023 10 16.0934 0 0
5:53 am 05:53 Clear 18 -7.8 11 -11.7 74 74 NW 12 19 30.24 1024 10 16.0934 0 0
6:53 am 06:53 Clear 14 -10 9 -12.8 80 80 WNW 6 9 30.27 1025 10 16.0934 0 0
7:53 am 07:53 Sunny 16 -8.9 9 -12.8 74 74 WNW 7 11 30.39 1029 10 16.0934 0 0
8:53 am 08:53 Sunny 18 -7.8 11 -11.7 74 74 NW 3 6 30.39 1029 10 16.0934 0 0
9:53 am 09:53 Sunny 22 -5.6 14 -10 71 71 WNW 8 13 30.33 1027 10 16.0934 0 0
10:53 am 10:53 Sunny 25 -3.9 15 -9.4 66 66 WNW 7 11 30.3 1026 10 16.0934 0 0
11:53 am 11:53 Sunny 27 -2.8 17 -8.3 66 66 NW 7 11 30.3 1026 10 16.0934 0 0
12:53 pm 12:53 Sunny 28 -2.2 18 -7.8 66 66 WNW 6 9 30.27 1025 10 16.0934 0 0
1:53 pm 13:53 Sunny 31 -0.6 20 -6.7 64 64 Calm 30.27 1025 10 16.0934 0 0
2:53 pm 14:53 Sunny 30 -1.1 20 -6.7 66 66 Calm 30.24 1024 10 16.0934 0 0
3:53 pm 15:53 Sunny 25 -3.9 19 -7.2 78 78 SE 3 6 30.27 1025 10 16.0934 0 0
4:53 pm 16:53 Clear 21 -6.1 16 -8.9 81 81 Calm 30.29 1026 10 16.0934 0 0
5:53 pm 17:53 Clear 16 -8.9 12 -11.1 84 84 E 6 9 30.31 1027 10 16.0934 0 0
6:53 pm 18:53 Clear 14 -10 11 -11.7 88 88 E 3 6 30.33 1027 10 16.0934 0 0
7:53 pm 19:53 Clear 13 -10.6 10 -12.2 88 88 E 6 9 30.32 1027 10 16.0934 0 0
8:53 pm 20:53 Clear 13 -10.6 9 -12.8 84 84 E 7 11 30.29 1026 10 16.0934 0 0
9:53 pm 21:53 Clear 12 -11.1 9 -12.8 87 87 ESE 7 11 30.28 1026 10 16.0934 0 0
10:53 pm 22:53 Clear 10 -12.2 7 -13.9 87 87 ESE 6 9 30.27 1025 10 16.0934 0 0
11:53 pm 23:53 Clear 12 -11.1 9 -12.8 87 87 ENE 3 6 30.23 1024 10 16.0934 0 0

Powered by AerisWeather